カタログに戻る

STARLINK-31114

運用中通信VLEO
NORAD 58766·PAYLOAD·🇺🇸 United States

打ち上げ Jan 14, 2024 から Vandenberg Space Force Base

Loading…

次のパス (今後24時間)

TLE

最新Source: CelesTrak SupGP

元期: Sep 15, 2026, 01:46 UTC

1 58766C 24011B   26258.07409722 -.00019429  00000+0 -57429-3 0  2588
2 58766  53.1577 210.8714 0001144  76.4667 165.9378 15.34385894    11

AllMySatでSTARLINK-31114をリアルタイム追跡

Download on the App Store